Location: Ladirat
(44.8151°N, 1.9702°E)
Time: 20:52:31
(UTC+00:00)

NOSS 3-3 (A) - Pass Details

Date: 15 May 2026
Orbit: 691 x 1518 km, 63.4° (Epoch: 11 January)

Event Time Altitude Azimuth Distance (km) Brightness Sun altitude
Rises 19:55:11 0° 211° (SSW) 3,099 6.6 -7.0°
Reaches altitude 10° 19:57:23 10° 210° (SSW) 2,230 5.9 -7.3°
Maximum altitude 20:02:24 78° 125° (SE) 831 3.6 -8.1°
Drops below altitude 10° 20:08:24 10° 40° (NE) 2,642 6.3 -8.9°
Sets 20:11:13 0° 39° (NE) 3,720 7.1 -9.3°
